Time,TemperatureF,DewpointF,PressureIn,WindDirection,WindDirectionDegrees,WindSpeedMPH,WindSpeedGustMPH,Humidity,HourlyPrecipIn,Conditions,Clouds,dailyrainin,SoftwareType,DateUTC
2013-08-05 04:00:00,63.0,-99.9,30.13,SSE,160,5.0,-999.0,-999,-99.99,,,-99.99,,2013-08-05 04:00:00,
2013-08-05 04:32:00,63.0,-99.9,30.13,SSE,160,5.0,-999.0,-999,-99.99,,,-99.99,,2013-08-05 04:32:00,
2013-08-05 04:43:00,63.0,-99.9,30.13,SSE,160,5.0,-999.0,-999,-99.99,,,-99.99,,2013-08-05 04:43:00,
2013-08-05 04:52:00,63.0,-99.9,30.13,SSE,160,5.0,-999.0,-999,-99.99,,,-99.99,,2013-08-05 04:52:00,
2013-08-05 05:00:00,62.0,-99.9,30.13,ESE,120,3.0,-999.0,-999,-99.99,,,-99.99,,2013-08-05 05:00:00,
2013-08-05 05:32:00,62.0,-99.9,30.13,ESE,120,3.0,-999.0,-999,-99.99,,,-99.99,,2013-08-05 05:32:00,
2013-08-05 05:43:00,62.0,-99.9,30.13,ESE,120,3.0,-999.0,-999,-99.99,,,-99.99,,2013-08-05 05:43:00,
2013-08-05 05:53:00,62.0,-99.9,30.13,ESE,120,3.0,-999.0,-999,-99.99,,,-99.99,,2013-08-05 05:53:00,
2013-08-05 06:00:00,63.0,-99.9,30.12,SSW,210,7.0,-999.0,-999,-99.99,,,-99.99,,2013-08-05 06:00:00,
2013-08-05 06:32:00,63.0,-99.9,30.12,SSW,210,7.0,-999.0,-999,-99.99,,,-99.99,,2013-08-05 06:32:00,
2013-08-05 06:43:00,63.0,-99.9,30.12,SSW,210,7.0,-999.0,-999,-99.99,,,-99.99,,2013-08-05 06:43:00,
2013-08-05 06:52:00,63.0,-99.9,30.12,SSW,210,7.0,-999.0,-999,-99.99,,,-99.99,,2013-08-05 06:52:00,
2013-08-05 08:00:00,55.0,-99.9,30.12,ENE,70,3.0,-999.0,-999,-99.99,,,-99.99,,2013-08-05 08:00:00,
2013-08-05 08:34:00,55.0,-99.9,30.12,ENE,70,3.0,-999.0,-999,-99.99,,,-99.99,,2013-08-05 08:34:00,
2013-08-05 08:53:00,55.0,-99.9,30.12,ENE,70,3.0,-999.0,-999,-99.99,,,-99.99,,2013-08-05 08:53:00,
2013-08-05 09:00:00,54.0,-99.9,30.12,ESE,120,3.0,-999.0,-999,-99.99,,,-99.99,,2013-08-05 09:00:00,
2013-08-05 09:50:00,54.0,-99.9,30.12,ESE,120,3.0,-999.0,-999,-99.99,,,-99.99,,2013-08-05 09:50:00,
2013-08-05 10:37:00,56.0,-99.9,30.12,NNW,330,1.0,-999.0,-999,-99.99,,,-99.99,,2013-08-05 10:37:00,
2013-08-05 10:50:00,56.0,-99.9,30.12,NNW,330,1.0,-999.0,-999,-99.99,,,-99.99,,2013-08-05 10:50:00,
2013-08-05 11:00:00,58.0,-99.9,30.12,SW,220,5.0,-999.0,-999,-99.99,,,-99.99,,2013-08-05 11:00:00,
2013-08-05 11:38:00,58.0,-99.9,30.12,SW,220,5.0,-999.0,-999,-99.99,,,-99.99,,2013-08-05 11:38:00,
2013-08-05 11:55:00,58.0,-99.9,30.12,SW,220,5.0,-999.0,-999,-99.99,,,-99.99,,2013-08-05 11:55:00,
2013-08-05 13:00:00,63.0,-99.9,30.12,SW,220,10.0,-999.0,-999,-99.99,,,-99.99,,2013-08-05 13:00:00,
2013-08-05 13:41:00,63.0,-99.9,30.12,SW,220,10.0,-999.0,-999,-99.99,,,-99.99,,2013-08-05 13:41:00,
2013-08-05 13:48:00,63.0,-99.9,30.12,SW,220,10.0,-999.0,-999,-99.99,,,-99.99,,2013-08-05 13:48:00,
2013-08-05 13:54:00,63.0,-99.9,30.12,SW,220,10.0,-999.0,-999,-99.99,,,-99.99,,2013-08-05 13:54:00,
2013-08-05 14:00:00,64.0,-99.9,30.11,SSW,200,10.0,-999.0,-999,-99.99,,,-99.99,,2013-08-05 14:00:00,
2013-08-05 14:50:00,64.0,-99.9,30.11,SSW,200,10.0,-999.0,-999,-99.99,,,-99.99,,2013-08-05 14:50:00,
2013-08-05 15:00:00,66.0,-99.9,30.11,South,180,12.0,-999.0,-999,-99.99,,,-99.99,,2013-08-05 15:00:00,
2013-08-05 15:52:00,66.0,-99.9,30.11,South,180,12.0,-999.0,-999,-99.99,,,-99.99,,2013-08-05 15:52:00,
2013-08-05 16:00:00,67.0,-99.9,30.09,South,170,15.0,-999.0,-999,-99.99,,,-99.99,,2013-08-05 16:00:00,
2013-08-05 16:33:00,67.0,-99.9,30.09,South,170,15.0,-999.0,-999,-99.99,,,-99.99,,2013-08-05 16:33:00,
2013-08-05 16:45:00,67.0,-99.9,30.09,South,170,15.0,-999.0,-999,-99.99,,,-99.99,,2013-08-05 16:45:00,
2013-08-05 17:00:00,68.0,-99.9,30.07,South,190,16.0,-999.0,-999,-99.99,,,-99.99,,2013-08-05 17:00:00,
2013-08-05 17:39:00,68.0,-99.9,30.07,South,190,16.0,-999.0,-999,-99.99,,,-99.99,,2013-08-05 17:39:00,
2013-08-05 17:50:00,68.0,-99.9,30.07,South,190,16.0,-999.0,-999,-99.99,,,-99.99,,2013-08-05 17:50:00,
2013-08-05 19:00:00,67.0,-99.9,30.03,SSE,160,14.0,-999.0,-999,-99.99,,,-99.99,,2013-08-05 19:00:00,
2013-08-05 19:54:00,67.0,-99.9,30.03,SSE,160,14.0,-999.0,-999,-99.99,,,-99.99,,2013-08-05 19:54:00,
2013-08-05 19:59:00,67.0,-99.9,30.03,SSE,160,14.0,-999.0,-999,-99.99,,,-99.99,,2013-08-05 19:59:00,
2013-08-05 20:00:00,68.0,-99.9,30.01,South,180,15.0,-999.0,-999,-99.99,,,-99.99,,2013-08-05 20:00:00,
2013-08-05 20:48:00,68.0,-99.9,30.01,South,180,15.0,-999.0,-999,-99.99,,,-99.99,,2013-08-05 20:48:00,
2013-08-05 21:00:00,66.0,-99.9,29.99,South,170,21.0,-999.0,-999,-99.99,,,-99.99,,2013-08-05 21:00:00,
2013-08-05 21:34:00,66.0,-99.9,29.99,South,170,21.0,-999.0,-999,-99.99,,,-99.99,,2013-08-05 21:34:00,
2013-08-05 21:48:00,66.0,-99.9,29.99,South,170,21.0,-999.0,-999,-99.99,,,-99.99,,2013-08-05 21:48:00,
2013-08-05 21:54:00,66.0,-99.9,29.99,South,170,21.0,-999.0,-999,-99.99,,,-99.99,,2013-08-05 21:54:00,
2013-08-05 22:00:00,66.0,-99.9,29.97,South,170,23.0,-999.0,-999,-99.99,,,-99.99,,2013-08-05 22:00:00,
2013-08-05 22:45:00,66.0,-99.9,29.97,South,170,23.0,-999.0,-999,-99.99,,,-99.99,,2013-08-05 22:45:00,
2013-08-05 22:54:00,66.0,-99.9,29.97,South,170,23.0,-999.0,-999,-99.99,,,-99.99,,2013-08-05 22:54:00,
2013-08-05 23:00:00,67.0,-99.9,29.95,SSW,200,18.0,-999.0,-999,-99.99,,,-99.99,,2013-08-05 23:00:00,
2013-08-05 23:33:00,67.0,-99.9,29.95,SSW,200,18.0,-999.0,-999,-99.99,,,-99.99,,2013-08-05 23:33:00,
2013-08-05 23:46:00,67.0,-99.9,29.95,SSW,200,18.0,-999.0,-999,-99.99,,,-99.99,,2013-08-05 23:46:00,